[[{"header":{"parameterUnit":"m.s-1","parameterCategory":2,"la1":30.2991,"la2":30.254,"lo1":-89.0895,"lo2":-89.0444,"dy":0.0017,"dx":0.0017,"nx":28,"ny":28,"refTime":"2023-04-08T21:00:00:Z","depth":"0","parameterNumber":2,"parameterNumberName":"U-component_of_CURRENTS"},"data":[0,0,0,0,0,0,0,0,0,0,0,0,0,0,0,0,0,0,0,0,0,0,0,0,0,0,0,0,0,0,0,0,0,0,0,0,0,0,0,0,0,0,0,0,0,0,0,0,0,0,0,0,0,0,0,0,0,0,0.3754,0.3755,0,0.3826,0.3827,0.3828,0.3863,0.3863,0.3863,0.3864,0.3808,0.3806,0.3805,0,0,0,0,0,0,0,0,0,0,0,0,0,0.3689,0.369,0.3754,0.3755,0.3756,0.3826,0.3827,0.3828,0.3863,0.3863,0.3864,0.3864,0.3808,0.3806,0.3804,0,0,0,0,0,0,0,0,0,0,0,0,0,0.3733,0.369,0.3754,0.3783,0.3787,0.3826,0.3827,0.3828,0.3863,0.3863,0.3864,0.3864,0.3809,0.3807,0.3804,0.3784,0,0,0.3797,0.3796,0,0,0,0,0,0,0,0,0.3731,0.3735,0.3778,0.3781,0.3785,0.3838,0.3784,0.3808,0.3863,0.3832,0.3864,0.3864,0.3807,0.3805,0.3817,0.3781,0.3779,0.3796,0.3795,0.3794,0.3793,0,0,0,0,0,0,0,0.3727,0.3733,0.3781,0.3779,0.3784,0.3808,0.3814,0.3789,0.3813,0.3835,0.3838,0.3849,0.3808,0.3819,0.3815,0.3778,0.3796,0.3794,0.3793,0.3792,0.3791,0.3793,0,0,0,0,0,0,0.372,0.3729,0.3778,0.3783,0.376,0.3809,0.3816,0.3819,0.3817,0.3818,0.3849,0.3851,0.3823,0.3818,0.3813,0.3837,0.3794,0.3792,0.379,0.379,0.3792,0.3793,0,0,0,0,0,0,0.3718,0.3723,0.3775,0.376,0.3769,0.381,0.3814,0.382,0.3835,0.3829,0.3828,0.3857,0.3823,0.3817,0.3805,0.3833,0.379,0.3788,0.3788,0.379,0.3792,0.3853,0,0,0,0,0,0,0.3716,0.3722,0.3719,0.3759,0.3769,0.3806,0.3814,0.3822,0.3842,0.3845,0.3835,0.383,0.3823,0.3809,0.3802,0.3829,0.3786,0.3786,0.3789,0.3792,0.3849,0.3857,0.3863,0,0,0,0,0,0.3713,0.3713,0.3718,0.3725,0.3765,0.3806,0.3814,0.3843,0.3842,0.3855,0.385,0.3831,0.3823,0.3807,0.38,0.3826,0.3785,0.3788,0.3792,0.3846,0.3855,0.3863,0,0,0,0,0,0,0.3682,0.3718,0.3725,0.3734,0.3769,0.3813,0.3829,0.3841,0.3849,0.3847,0.3833,0.3829,0.3839,0.3818,0.3802,0.3838,0.3807,0.3809,0.3851,0.3859,0.3866,0.3891,0.3784,0,0,0,0,0,0.3673,0.3683,0.3724,0.3731,0.375,0.3786,0.3804,0.3825,0.3841,0.3846,0.3841,0.3838,0.3847,0.3839,0.3841,0.3838,0.3867,0.3857,0.3864,0.387,0.3887,0.3963,0.3979,0.3804,0.3804,0.3804,0,0,0.3662,0.3684,0.3688,0.3726,0.3755,0.3791,0.3797,0.3831,0.3862,0.3833,0.3859,0.3858,0.3854,0.3874,0.3876,0.3856,0.3937,0.3874,0.388,0.3894,0.3968,0.3985,0.4,0.3806,0.3806,0.3805,0,0,0.3654,0.3668,0.3679,0.3714,0.3761,0.3791,0.38,0.3843,0.3865,0.388,0.3889,0.3907,0.3891,0.3921,0.3926,0.3968,0.3977,0.3964,0.4011,0.4084,0.41,0.4113,0.4179,0.4199,0.3962,0.3962,0.3962,0,0.3638,0.3663,0.3689,0.3721,0.3757,0.3791,0.3826,0.3857,0.389,0.3913,0.3891,0.3934,0.3924,0.3981,0.4006,0.3987,0.4027,0.3976,0.4096,0.411,0.4123,0.4187,0.4208,0.3965,0.3965,0.3965,0.3964,0,0.3652,0.3676,0.3692,0.3744,0.3783,0.3821,0.3875,0.3908,0.3924,0.3953,0.4002,0.4006,0.4037,0.4041,0.4031,0.4126,0.4125,0.4102,0.4075,0.4145,0.4207,0.4228,0.397,0.3969,0.3968,0.3967,0,0,0.3591,0.3684,0.3685,0.3719,0.3803,0.3831,0.3899,0.3967,0.4009,0.4036,0.4093,0.4125,0.4136,0.4146,0.4151,0.4208,0.4333,0.4197,0.4199,0.4266,0.4503,0.4466,0.4485,0.4334,0.4337,0.434,0.4512,0,0.3593,0.3651,0.3705,0.3763,0.3802,0.3876,0.3933,0.3997,0.4048,0.4108,0.4146,0.4189,0.4175,0.4192,0.4257,0.4316,0.4389,0.4289,0.4423,0.4428,0.4389,0.4508,0.4345,0.4482,0.4532,0.4535,0.4538,0,0.3579,0.3626,0.3688,0.3781,0.3804,0.3849,0.3955,0.4012,0.4119,0.4154,0.4226,0.4258,0.4361,0.4321,0.4488,0.4427,0.4482,0.4518,0.4525,0.4486,0.4429,0.4419,0.4517,0.4415,0.4569,0.4566,0.4564,0,0.3516,0.3604,0.3654,0.369,0.3803,0.3847,0.3909,0.402,0.408,0.4195,0.4254,0.4358,0.4429,0.4517,0.4615,0.4561,0.4795,0.4722,0.4746,0.4743,0.4629,0.461,0.4645,0.4853,0.4853,0.4852,0.4852,0,0.3498,0.3529,0.3625,0.3655,0.3708,0.3803,0.3881,0.3957,0.4081,0.4164,0.4274,0.4376,0.4486,0.4627,0.4677,0.4803,0.4858,0.4796,0.4802,0.4645,0.4626,0.4548,0.4492,0.4859,0.4857,0.4856,0.4855,0,0.3433,0.3496,0.355,0.3657,0.3683,0.3721,0.3853,0.392,0.4046,0.417,0.4214,0.4424,0.4616,0.4737,0.4902,0.4894,0.4867,0.502,0.483,0.4809,0.4669,0.4622,0.4499,0.4366,0.5053,0.5053,0.5054,0,0.3421,0.3441,0.3527,0.3562,0.3615,0.3687,0.3748,0.3871,0.3959,0.4203,0.4269,0.4506,0.4663,0.4919,0.4969,0.5078,0.492,0.4955,0.481,0.4682,0.4635,0.4419,0.4299,0.469,0.4687,0.4685,0.4683,0,0.3409,0.3429,0.3482,0.3539,0.3594,0.3641,0.3743,0.3797,0.3967,0.4097,0.4308,0.4455,0.4725,0.479,0.4939,0.4967,0.4706,0.491,0.4831,0.4415,0.413,0.3997,0.4557,0.4663,0.4665,0.4667,0.4668,0.4668,0.341,0.3427,0.3494,0.3539,0.3578,0.3607,0.3618,0.3748,0.3859,0.4028,0.4237,0.4394,0.4559,0.476,0.476,0.4656,0.4609,0.4517,0.4495,0.4307,0.409,0.4613,0.4684,0.4685,0.4687,0.4689,0.469,0,0.3431,0.3457,0.3504,0.3535,0.3528,0.3561,0.3623,0.3616,0.3705,0.3905,0.4065,0.4207,0.4294,0.4379,0.4404,0.427,0.4026,0.416,0.382,0.3741,0.4278,0.4174,0.407,0.407,0.407,0.407,0.4071,0.4071,0.3461,0.3496,0.3504,0.3485,0.348,0.3409,0.3406,0.3413,0.3502,0.3593,0.3669,0.381,0.4018,0.4152,0.4066,0.3965,0.3661,0.3505,0.3489,0.3891,0.3921,0.3949,0.3838,0.3666,0.3666,0.2772,0.2766,0.2761]},{"header":{"parameterUnit":"m.s-1","parameterCategory":2,"la1":30.2991,"la2":30.254,"lo1":-89.0895,"lo2":-89.0444,"dy":0.0017,"dx":0.0017,"nx":28,"ny":28,"refTime":"2023-04-08T21:00:00:Z","depth":"0","parameterNumber":3,"parameterNumberName":"V-component_of_CURRENTS"},"data":[0,0,0,0,0,0,0,0,0,0,0,0,0,0,0,0,0,0,0,0,0,0,0,0,0,0,0,0,0,0,0,0,0,0,0,0,0,0,0,0,0,0,0,0,0,0,0,0,0,0,0,0,0,0,0,0,0,0,-0.0413,-0.0414,0,-0.0524,-0.0526,-0.0528,-0.065,-0.0651,-0.0652,-0.0654,-0.0771,-0.0773,-0.0774,0,0,0,0,0,0,0,0,0,0,0,0,0,-0.0352,-0.0352,-0.0413,-0.0414,-0.0415,-0.0524,-0.0526,-0.0528,-0.065,-0.0651,-0.0653,-0.0654,-0.077,-0.0772,-0.0775,0,0,0,0,0,0,0,0,0,0,0,0,0,-0.0417,-0.0353,-0.0412,-0.0485,-0.0492,-0.0524,-0.0526,-0.0528,-0.0649,-0.0651,-0.0653,-0.0655,-0.0769,-0.0772,-0.0775,-0.0752,0,0,-0.0784,-0.0785,0,0,0,0,0,0,0,0,-0.0413,-0.0419,-0.0473,-0.048,-0.0488,-0.0571,-0.0547,-0.0602,-0.0649,-0.0595,-0.0654,-0.0656,-0.07,-0.0708,-0.0732,-0.0758,-0.0763,-0.0784,-0.0785,-0.0787,-0.0787,0,0,0,0,0,0,0,-0.0408,-0.0415,-0.0462,-0.0474,-0.0483,-0.0527,-0.0539,-0.0559,-0.0638,-0.06,-0.0607,-0.0612,-0.0705,-0.0729,-0.0735,-0.0765,-0.0784,-0.0786,-0.0788,-0.0789,-0.0809,-0.0808,0,0,0,0,0,0,-0.038,-0.0411,-0.0458,-0.0465,-0.0449,-0.0526,-0.054,-0.0546,-0.0638,-0.0653,-0.061,-0.0617,-0.0723,-0.0732,-0.074,-0.073,-0.0787,-0.0789,-0.0791,-0.081,-0.0809,-0.0807,0,0,0,0,0,0,-0.0378,-0.0383,-0.0454,-0.0436,-0.0448,-0.0524,-0.0532,-0.0547,-0.0569,-0.0645,-0.0662,-0.0615,-0.0725,-0.0736,-0.0751,-0.0735,-0.0791,-0.0793,-0.0811,-0.081,-0.0808,-0.0702,0,0,0,0,0,0,-0.0376,-0.0382,-0.0376,-0.0434,-0.0448,-0.0462,-0.053,-0.0548,-0.0566,-0.0577,-0.0654,-0.0668,-0.0727,-0.0747,-0.0754,-0.074,-0.0795,-0.0813,-0.0811,-0.0809,-0.0707,-0.0697,-0.0688,0,0,0,0,0,-0.0373,-0.0358,-0.0375,-0.038,-0.0437,-0.046,-0.0471,-0.0536,-0.0564,-0.0565,-0.0616,-0.0665,-0.0739,-0.0747,-0.0757,-0.0743,-0.0814,-0.0811,-0.0809,-0.0711,-0.0699,-0.0689,0,0,0,0,0,0,-0.033,-0.037,-0.039,-0.0388,-0.0413,-0.0479,-0.0483,-0.0517,-0.0558,-0.0569,-0.0643,-0.0659,-0.0673,-0.0711,-0.0718,-0.0742,-0.0787,-0.0786,-0.0709,-0.0698,-0.0689,-0.0664,-0.0798,0,0,0,0,0,-0.0311,-0.0311,-0.0353,-0.0347,-0.0356,-0.0411,-0.0427,-0.0465,-0.0508,-0.053,-0.058,-0.063,-0.0668,-0.0684,-0.0726,-0.0722,-0.0747,-0.0722,-0.0712,-0.0704,-0.069,-0.0721,-0.0713,-0.0799,-0.0799,-0.0799,0,0,-0.0295,-0.0311,-0.0315,-0.0337,-0.0365,-0.0369,-0.0427,-0.044,-0.0443,-0.0531,-0.0545,-0.0596,-0.066,-0.0675,-0.0683,-0.0703,-0.0686,-0.0701,-0.0693,-0.0683,-0.0718,-0.0709,-0.0702,-0.0797,-0.0797,-0.0798,0,0,-0.0253,-0.0271,-0.0258,-0.0271,-0.0294,-0.0327,-0.0319,-0.0369,-0.0393,-0.0403,-0.0473,-0.0504,-0.0556,-0.0602,-0.0631,-0.0584,-0.0638,-0.0601,-0.053,-0.0561,-0.0554,-0.0548,-0.0537,-0.0532,-0.0593,-0.0593,-0.0593,0,-0.0232,-0.0219,-0.0255,-0.0241,-0.0243,-0.0298,-0.0281,-0.0306,-0.0354,-0.0355,-0.0393,-0.0467,-0.0522,-0.0539,-0.0536,-0.0562,-0.0577,-0.0568,-0.0548,-0.0543,-0.0539,-0.053,-0.0525,-0.0588,-0.0588,-0.0589,-0.0589,0,-0.0182,-0.0173,-0.0161,-0.0165,-0.017,-0.0161,-0.0194,-0.0198,-0.0227,-0.0258,-0.0275,-0.035,-0.0395,-0.0419,-0.0466,-0.0463,-0.0479,-0.0535,-0.0574,-0.0524,-0.0517,-0.0514,-0.058,-0.0582,-0.0583,-0.0585,0,0,-0.0127,-0.0128,-0.0122,-0.0105,-0.0126,-0.0119,-0.011,-0.0113,-0.0092,-0.0148,-0.0129,-0.0206,-0.0249,-0.0283,-0.0347,-0.0373,-0.0355,-0.0432,-0.0436,-0.0414,-0.0389,-0.0379,-0.0375,-0.0413,-0.0413,-0.0412,-0.0383,0,-0.0075,-0.0029,-0.0047,-0.0002,0.002,-0.0015,0.0006,-0.0004,-0.0025,-0.0019,-0.009,-0.0111,-0.0197,-0.0215,-0.0252,-0.0332,-0.0347,-0.0356,-0.0446,-0.0447,-0.0441,-0.0372,-0.0341,-0.0311,-0.0381,-0.038,-0.038,0,-0.0011,0.0013,0.0068,0.0095,0.0103,0.0123,0.0156,0.0165,0.0152,0.0136,0.0099,0.003,-0.001,-0.0099,-0.019,-0.0192,-0.0274,-0.0339,-0.0341,-0.0368,-0.0433,-0.038,-0.0304,-0.0534,-0.0376,-0.0376,-0.0377,0,0.0067,0.0098,0.0151,0.016,0.0177,0.0208,0.0219,0.0221,0.0258,0.0235,0.0261,0.017,0.0154,0.0029,-0.0102,-0.0152,-0.019,-0.0284,-0.0344,-0.0343,-0.0351,-0.0351,-0.0504,-0.0345,-0.0345,-0.0346,-0.0346,0,0.014,0.0186,0.0198,0.0232,0.0313,0.0294,0.0378,0.0374,0.0398,0.0478,0.0352,0.0406,0.0182,0.0125,-0.0031,-0.0141,-0.0135,-0.0302,-0.0333,-0.0309,-0.0306,-0.0538,-0.0658,-0.0344,-0.0345,-0.0345,-0.0345,0,0.0225,0.0227,0.0296,0.0333,0.0355,0.0418,0.0488,0.055,0.0556,0.0659,0.0659,0.0597,0.0532,0.0332,0.0156,-0.0017,-0.0262,-0.0203,-0.0134,-0.0158,-0.0466,-0.058,-0.0716,-0.0818,-0.0276,-0.0276,-0.0275,0,0.0274,0.0317,0.0384,0.0442,0.0467,0.0551,0.0618,0.0633,0.0713,0.0809,0.0882,0.0838,0.0868,0.0625,0.03,0.0048,-0.0186,-0.0129,-0.0242,-0.045,-0.0601,-0.0688,-0.0773,-0.0195,-0.0194,-0.0194,-0.0193,0,0.0374,0.0396,0.0455,0.0562,0.0644,0.0744,0.0844,0.0929,0.0989,0.1102,0.1261,0.1296,0.1071,0.0826,0.0434,0.0234,-0.0281,-0.0122,-0.037,-0.0561,-0.0633,-0.0756,-0.0229,-0.0186,-0.0186,-0.0187,-0.0187,-0.0188,0.0458,0.0514,0.0585,0.0686,0.0794,0.0933,0.103,0.1169,0.1339,0.154,0.1567,0.1708,0.1279,0.0761,0.0424,-0.0201,-0.0223,-0.042,-0.0535,-0.0601,-0.0722,-0.0151,-0.0138,-0.0138,-0.0138,-0.0139,-0.0139,0,0.0545,0.0598,0.0702,0.0827,0.0963,0.0994,0.1179,0.1301,0.1537,0.1785,0.1957,0.1897,0.1362,0.078,-0.0066,-0.0543,-0.0737,-0.0804,-0.0954,-0.1021,-0.0536,-0.0559,-0.0598,-0.0598,-0.0598,-0.0597,-0.0597,-0.0597,0.0597,0.0688,0.0719,0.0935,0.1045,0.122,0.1328,0.1544,0.1753,0.2089,0.2258,0.2336,0.1899,0.0347,-0.0743,-0.0999,-0.134,-0.1378,-0.158,-0.1298,-0.1273,-0.1249,-0.1303,-0.1497,-0.1498,-0.2015,-0.2021,-0.2025]}],[{"header":{"parameterUnit":"m.s-1","parameterCategory":2,"la1":30.2991,"la2":30.254,"lo1":-89.0895,"lo2":-89.0444,"dy":0.0017,"dx":0.0017,"nx":28,"ny":28,"refTime":"2023-04-08T21:00:00:Z","depth":"2","parameterNumber":2,"parameterNumberName":"U-component_of_CURRENTS"},"data":[0,0,0,0,0,0,0,0,0,0,0,0,0,0,0,0,0,0,0,0,0,0,0,0,0,0,0,0,0,0,0,0,0,0,0,0,0,0,0,0,0,0,0,0,0,0,0,0,0,0,0,0,0,0,0,0,0,0,0.2859,0.2859,0,0.2899,0.29,0.29,0.2806,0.2803,0.28,0.2797,0.2817,0.2821,0.2824,0,0,0,0,0,0,0,0,0,0,0,0,0,0.281,0.2811,0.2859,0.2859,0.2859,0.2899,0.29,0.2901,0.2806,0.2803,0.2799,0.2795,0.2816,0.282,0.2824,0,0,0,0,0,0,0,0,0,0,0,0,0,0.284,0.2811,0.2858,0.2817,0.2813,0.2899,0.29,0.2901,0.2807,0.2802,0.2798,0.2793,0.2815,0.282,0.2825,0.295,0,0,0.2841,0.2843,0,0,0,0,0,0,0,0,0.2838,0.2842,0.2822,0.282,0.2816,0.2842,0.2891,0.2916,0.2808,0.281,0.2797,0.2791,0.2827,0.2831,0.285,0.2951,0.2952,0.2841,0.2844,0.2847,0.2848,0,0,0,0,0,0,0,0.2836,0.284,0.2875,0.2823,0.2819,0.2834,0.2832,0.2896,0.2844,0.281,0.2803,0.2808,0.2824,0.2845,0.285,0.2952,0.2841,0.2846,0.2849,0.2851,0.3019,0.302,0,0,0,0,0,0,0.2829,0.2838,0.2874,0.2877,0.2815,0.2838,0.2836,0.2839,0.2844,0.284,0.2812,0.2803,0.2839,0.2844,0.285,0.2907,0.2847,0.2851,0.2854,0.3018,0.3019,0.3021,0,0,0,0,0,0,0.2828,0.2832,0.2873,0.2857,0.2863,0.2843,0.2848,0.2842,0.2858,0.2845,0.284,0.2831,0.2835,0.2843,0.2878,0.2909,0.2854,0.2858,0.3016,0.3018,0.302,0.3078,0,0,0,0,0,0,0.2827,0.2832,0.2843,0.2857,0.2864,0.2894,0.2852,0.2846,0.2868,0.2857,0.2862,0.2858,0.2832,0.2871,0.2884,0.2915,0.2862,0.3014,0.3017,0.3019,0.3075,0.3082,0.3089,0,0,0,0,0,0.2825,0.2835,0.2844,0.2849,0.2876,0.2895,0.29,0.2871,0.2873,0.2872,0.2875,0.2858,0.2895,0.2877,0.2892,0.2926,0.3013,0.3016,0.3019,0.3072,0.3081,0.3089,0,0,0,0,0,0,0.2811,0.2828,0.2836,0.285,0.2866,0.2877,0.2888,0.2898,0.2911,0.2905,0.2897,0.2895,0.2938,0.2934,0.2915,0.2978,0.2946,0.2952,0.2981,0.299,0.2997,0.2995,0.2867,0,0,0,0,0,0.2825,0.2837,0.2857,0.287,0.2885,0.2908,0.2922,0.2911,0.2922,0.2923,0.2932,0.2945,0.2973,0.2977,0.2999,0.3058,0.307,0.3081,0.3088,0.3094,0.3101,0.3155,0.3167,0.3031,0.3031,0.3031,0,0,0.2815,0.2837,0.2837,0.287,0.289,0.2917,0.2903,0.2924,0.2944,0.2933,0.2969,0.2988,0.2998,0.3033,0.3052,0.3026,0.314,0.3098,0.3103,0.3107,0.3159,0.3173,0.3184,0.3033,0.3033,0.3032,0,0,0.2814,0.2838,0.2851,0.2876,0.2913,0.2931,0.2946,0.2976,0.2977,0.3029,0.3022,0.3052,0.3102,0.3097,0.3108,0.3181,0.3187,0.3192,0.3219,0.3271,0.3283,0.3293,0.3327,0.334,0.3181,0.3181,0.3181,0,0.2806,0.2832,0.2857,0.289,0.2914,0.2944,0.2971,0.2997,0.3031,0.3054,0.3031,0.3124,0.3127,0.3182,0.3185,0.3198,0.3226,0.3186,0.3281,0.3292,0.3301,0.3333,0.3347,0.3185,0.3184,0.3184,0.3184,0,0.2825,0.2848,0.2863,0.2915,0.2947,0.2972,0.3014,0.3051,0.3081,0.3105,0.317,0.3183,0.3227,0.3237,0.3233,0.3311,0.3309,0.3296,0.326,0.3319,0.3349,0.3362,0.3189,0.3188,0.3187,0.3186,0,0,0.2781,0.2858,0.2858,0.2887,0.2963,0.2983,0.3046,0.3101,0.3147,0.3182,0.3237,0.3285,0.3307,0.3321,0.3331,0.3364,0.3453,0.3361,0.3363,0.3395,0.3572,0.354,0.355,0.3468,0.347,0.3473,0.3565,0,0.2782,0.2835,0.288,0.2926,0.2958,0.302,0.3072,0.3131,0.3186,0.3245,0.328,0.3339,0.3335,0.3366,0.3406,0.346,0.3491,0.3429,0.3509,0.3511,0.3477,0.3566,0.3296,0.3354,0.3578,0.358,0.3581,0,0.2778,0.2818,0.2865,0.2937,0.2957,0.2997,0.3096,0.3149,0.3248,0.3289,0.3364,0.3404,0.3487,0.3455,0.3577,0.3547,0.3566,0.3583,0.3587,0.3546,0.3504,0.3332,0.3369,0.3603,0.3601,0.36,0.3598,0,0.2723,0.2796,0.2833,0.2861,0.2957,0.2995,0.3054,0.3162,0.3215,0.3333,0.3391,0.3487,0.3557,0.3608,0.3672,0.3641,0.3785,0.374,0.3719,0.3716,0.3495,0.3468,0.3803,0.3803,0.3803,0.3802,0.3802,0,0.2695,0.2717,0.2811,0.2825,0.2883,0.2967,0.3044,0.3119,0.3228,0.3305,0.3415,0.3495,0.3607,0.3702,0.3715,0.3785,0.3831,0.3751,0.3752,0.3508,0.3483,0.3697,0.3683,0.3806,0.3805,0.3804,0.3804,0,0.262,0.2679,0.2729,0.2825,0.2856,0.2905,0.3024,0.3074,0.3205,0.3314,0.3359,0.3539,0.3688,0.3773,0.3878,0.3859,0.3901,0.3893,0.36,0.3565,0.3778,0.3766,0.3889,0.3889,0.3889,0.3889,0.3889,0,0.2589,0.261,0.2709,0.2744,0.2788,0.2871,0.2918,0.3042,0.3118,0.3333,0.3381,0.3575,0.3685,0.3849,0.3869,0.391,0.3932,0.3657,0.3541,0.3805,0.3794,0.3782,0.3771,0.3263,0.3258,0.3254,0.3251,0,0.2549,0.2591,0.2637,0.2683,0.2735,0.2797,0.2891,0.2922,0.3088,0.3188,0.334,0.3441,0.3658,0.3617,0.3709,0.3679,0.3635,0.3575,0.3943,0.3295,0.3226,0.3211,0.3218,0.3213,0.3217,0.322,0.3222,0.3223,0.2534,0.2544,0.2592,0.2623,0.2687,0.2704,0.2694,0.2798,0.2866,0.2978,0.3177,0.3248,0.3365,0.3384,0.331,0.327,0.3509,0.3334,0.3342,0.3355,0.3278,0.3214,0.3184,0.3187,0.319,0.3193,0.3195,0,0.2485,0.249,0.2521,0.2547,0.2546,0.2615,0.2656,0.2609,0.2621,0.2782,0.2887,0.2746,0.278,0.2877,0.2783,0.2818,0.2734,0.2686,0.2538,0.2582,0.262,0.2497,0.2199,0.2195,0.2191,0.2188,0,0,0.2472,0.2438,0.2418,0.2382,0.2409,0.2345,0.2325,0.2284,0.2342,0.2321,0.2366,0.2634,0.2802,0.2439,0.2433,0.2288,0.2391,0.2202,0.3018,0.2887,0.2918,0.3037,0.2906,0,0,0,0,0]},{"header":{"parameterUnit":"m.s-1","parameterCategory":2,"la1":30.2991,"la2":30.254,"lo1":-89.0895,"lo2":-89.0444,"dy":0.0017,"dx":0.0017,"nx":28,"ny":28,"refTime":"2023-04-08T21:00:00:Z","depth":"2","parameterNumber":3,"parameterNumberName":"V-component_of_CURRENTS"},"data":[0,0,0,0,0,0,0,0,0,0,0,0,0,0,0,0,0,0,0,0,0,0,0,0,0,0,0,0,0,0,0,0,0,0,0,0,0,0,0,0,0,0,0,0,0,0,0,0,0,0,0,0,0,0,0,0,0,0,0.014,0.014,0,0.0069,0.0068,0.0067,0.006,0.0061,0.0062,0.0063,-0.0053,-0.0057,-0.0061,0,0,0,0,0,0,0,0,0,0,0,0,0,0.0183,0.0182,0.014,0.014,0.0139,0.0069,0.0068,0.0066,0.006,0.0061,0.0063,0.0064,-0.0051,-0.0056,-0.0061,0,0,0,0,0,0,0,0,0,0,0,0,0,0.0139,0.0182,0.014,0.0131,0.013,0.0069,0.0068,0.0066,0.0059,0.0061,0.0063,0.0065,-0.005,-0.0056,-0.0062,-0.0137,0,0,-0.0081,-0.0084,0,0,0,0,0,0,0,0,0.0142,0.0137,0.0133,0.0132,0.013,0.0079,0.0041,-0.0002,0.0059,0.0081,0.0063,0.0066,-0.0011,-0.002,-0.0044,-0.0142,-0.0147,-0.0082,-0.0086,-0.0088,-0.009,0,0,0,0,0,0,0,0.0145,0.014,0.0107,0.0132,0.0131,0.0101,0.0097,0.0032,0.0021,0.0079,0.008,0.0079,-0.0012,-0.0038,-0.0047,-0.0149,-0.0082,-0.0087,-0.0091,-0.0094,-0.0228,-0.0228,0,0,0,0,0,0,0.0166,0.0143,0.0109,0.0105,0.0146,0.01,0.0095,0.009,0.0023,0.0016,0.0078,0.0079,-0.0028,-0.0039,-0.0051,-0.0066,-0.0088,-0.0094,-0.0098,-0.0228,-0.0228,-0.0228,0,0,0,0,0,0,0.0167,0.0163,0.0112,0.0127,0.0119,0.0098,0.0092,0.0088,0.0075,0.0023,0.0015,0.0072,-0.0027,-0.0042,-0.0084,-0.0073,-0.0097,-0.0103,-0.0228,-0.0228,-0.0228,-0.0145,0,0,0,0,0,0,0.0168,0.0164,0.0162,0.0128,0.0119,0.0102,0.0091,0.0085,0.0074,0.0075,0.0015,0.0006,-0.0027,-0.0074,-0.009,-0.0082,-0.0108,-0.0229,-0.0228,-0.0228,-0.0148,-0.0142,-0.0137,0,0,0,0,0,0.017,0.0177,0.0163,0.0159,0.0119,0.0103,0.0095,0.0083,0.0072,0.0074,0.0036,0.0008,-0.0082,-0.0079,-0.0098,-0.0092,-0.0229,-0.0228,-0.0228,-0.0151,-0.0143,-0.0137,0,0,0,0,0,0,0.0198,0.0176,0.016,0.016,0.0141,0.0105,0.0105,0.0083,0.005,0.0052,-0.0003,-0.0015,-0.0046,-0.0086,-0.0082,-0.0128,-0.0156,-0.0159,-0.0091,-0.0085,-0.0079,-0.0047,-0.0113,0,0,0,0,0,0.02,0.0198,0.0171,0.017,0.0165,0.0128,0.0116,0.0107,0.0076,0.0064,0.002,-0.0025,-0.0066,-0.0085,-0.0131,-0.0169,-0.0202,-0.0174,-0.0168,-0.0163,-0.0149,-0.0194,-0.0191,-0.0226,-0.0226,-0.0226,0,0,0.0214,0.0197,0.0198,0.0175,0.0156,0.016,0.0126,0.0121,0.0123,0.0052,0.0037,-0.0015,-0.0073,-0.01,-0.0117,-0.0127,-0.017,-0.0162,-0.0157,-0.0146,-0.0193,-0.019,-0.0186,-0.0226,-0.0226,-0.0226,0,0,0.0243,0.0223,0.0234,0.0222,0.0204,0.0185,0.0188,0.0154,0.0144,0.0111,0.0071,0.0033,-0.0042,-0.0067,-0.0093,-0.0091,-0.0142,-0.0109,-0.0053,-0.0097,-0.0094,-0.0092,-0.0124,-0.0125,-0.0101,-0.0101,-0.0101,0,0.026,0.0267,0.0235,0.0242,0.0245,0.0204,0.0224,0.02,0.0157,0.0148,0.0126,0.003,-0.0021,-0.0046,-0.0036,-0.0076,-0.0108,-0.0072,-0.0088,-0.0087,-0.0086,-0.0119,-0.0122,-0.0097,-0.0097,-0.0098,-0.0098,0,0.0298,0.0305,0.0313,0.031,0.0305,0.0318,0.0292,0.0283,0.0255,0.0223,0.0186,0.0113,0.0065,0.0039,-0.0001,-0.0017,-0.0044,-0.0078,-0.01,-0.0077,-0.0114,-0.0118,-0.0091,-0.0093,-0.0094,-0.0095,0,0,0.0343,0.0343,0.0348,0.0364,0.0347,0.0354,0.036,0.0354,0.0365,0.0302,0.0304,0.0222,0.0177,0.0145,0.0086,0.0048,0.0022,-0.0004,-0.0008,-0.0025,-0.0067,-0.0088,-0.0095,-0.0018,-0.0019,-0.0019,-0.0093,0,0.0389,0.0426,0.041,0.0455,0.0477,0.045,0.0464,0.0448,0.0417,0.0405,0.0327,0.0295,0.0219,0.0199,0.0149,0.0054,0.0014,0.0046,-0.0096,-0.01,-0.0112,-0.0099,-0.0059,-0.0122,-0.0098,-0.0098,-0.0099,0,0.0437,0.0457,0.0509,0.0538,0.0548,0.0569,0.0591,0.0594,0.056,0.0535,0.0483,0.0412,0.0349,0.028,0.0138,0.0161,0.006,-0.0019,-0.0025,-0.0073,-0.0128,-0.0144,-0.0131,-0.0107,-0.0106,-0.0105,-0.0105,0,0.0496,0.0531,0.058,0.0589,0.061,0.0637,0.0652,0.0637,0.0657,0.0617,0.0623,0.0516,0.0481,0.0337,0.0168,0.0151,0.0011,-0.0037,-0.015,-0.0152,-0.0159,-0.0161,-0.0135,-0.0135,-0.0135,-0.0134,-0.0134,0,0.0555,0.0595,0.0618,0.0647,0.0719,0.0705,0.0773,0.0767,0.0773,0.0816,0.0699,0.0707,0.0493,0.0381,0.0209,0.0026,0.0038,-0.0131,-0.0171,-0.0129,-0.0128,-0.0151,-0.0152,-0.0137,-0.0137,-0.0136,-0.0136,0,0.0608,0.0622,0.0681,0.0725,0.075,0.0799,0.0868,0.0911,0.0905,0.0961,0.0956,0.0853,0.0708,0.0487,0.0259,0.0099,-0.0089,-0.016,-0.009,-0.0121,-0.0234,-0.0229,-0.0291,-0.0292,-0.0293,-0.0294,-0.0295,0,0.0638,0.0674,0.0745,0.0794,0.0822,0.0896,0.0955,0.0978,0.1033,0.106,0.1099,0.0978,0.0912,0.0567,0.0256,-0.0044,-0.0088,-0.0201,-0.0233,-0.0216,-0.0249,-0.0243,-0.0238,-0.021,-0.021,-0.021,-0.021,0,0.0695,0.0718,0.0772,0.0872,0.0947,0.1039,0.113,0.1197,0.1239,0.1284,0.1326,0.1275,0.0959,0.0652,0.0236,0.0041,-0.0155,-0.0212,-0.0212,-0.0175,-0.0145,-0.0176,-0.0172,-0.021,-0.021,-0.021,-0.021,-0.021,0.074,0.0787,0.086,0.096,0.105,0.1176,0.1266,0.1365,0.1471,0.155,0.1498,0.1432,0.109,0.0555,0.0199,-0.0167,-0.0155,-0.0279,-0.0277,-0.0275,-0.025,-0.0224,-0.0298,-0.0299,-0.0299,-0.03,-0.03,0,0.0795,0.0852,0.0944,0.1067,0.1175,0.122,0.1378,0.1464,0.1604,0.1661,0.1685,0.1369,0.1018,0.0623,0.0073,-0.0253,-0.0267,-0.0342,-0.0295,-0.0291,-0.0289,-0.0265,-0.0317,-0.0319,-0.032,-0.0321,0,0,0.0827,0.0923,0.0972,0.1157,0.1247,0.1404,0.1502,0.1626,0.1702,0.175,0.1711,0.162,0.114,0.0742,0.0298,-0.0019,-0.0073,-0.0067,-0.0013,0.0101,0.0106,-0.021,-0.0163,0,0,0,0,0]}],[{"header":{"parameterUnit":"m.s-1","parameterCategory":2,"la1":30.2991,"la2":30.254,"lo1":-89.0895,"lo2":-89.0444,"dy":0.0017,"dx":0.0017,"nx":28,"ny":28,"refTime":"2023-04-08T21:00:00:Z","depth":"4","parameterNumber":2,"parameterNumberName":"U-component_of_CURRENTS"},"data":[0,0,0,0,0,0,0,0,0,0,0,0,0,0,0,0,0,0,0,0,0,0,0,0,0,0,0,0,0,0,0,0,0,0,0,0,0,0,0,0,0,0,0,0,0,0,0,0,0,0,0,0,0,0,0,0,0,0,0.1611,0.1611,0,0.1666,0.1667,0.1667,0.1684,0.1684,0.1684,0.1684,0.1811,0.1814,0.1818,0,0,0,0,0,0,0,0,0,0,0,0,0,0.1523,0.1524,0.1611,0.1612,0.1613,0.1666,0.1667,0.1667,0.1684,0.1684,0.1684,0.1684,0.181,0.1814,0.1818,0,0,0,0,0,0,0,0,0,0,0,0,0,0.1565,0.1524,0.161,0.163,0.1633,0.1666,0.1667,0.1667,0.1684,0.1684,0.1684,0.1684,0.1809,0.1814,0.1819,0.1849,0,0,0.1834,0.1836,0,0,0,0,0,0,0,0,0.1562,0.1567,0.1626,0.1629,0.1632,0.1671,0.1683,0.1733,0.1684,0.1661,0.1684,0.1684,0.1773,0.1781,0.1786,0.1855,0.186,0.1834,0.1838,0.184,0.1841,0,0,0,0,0,0,0,0.1559,0.1565,0.1629,0.1627,0.1631,0.1638,0.1643,0.1691,0.1715,0.1663,0.1665,0.1677,0.1775,0.1781,0.1789,0.1862,0.1834,0.1839,0.1842,0.1844,0.2032,0.2034,0,0,0,0,0,0,0.1559,0.1563,0.1627,0.1631,0.16,0.1639,0.1645,0.1656,0.1713,0.1722,0.1677,0.1677,0.1772,0.1783,0.1794,0.1907,0.184,0.1844,0.1847,0.203,0.2033,0.2035,0,0,0,0,0,0,0.1557,0.1564,0.1625,0.1601,0.1609,0.1641,0.1652,0.1657,0.1698,0.1723,0.1733,0.1717,0.1773,0.1787,0.1869,0.1909,0.1847,0.1851,0.2028,0.2031,0.2034,0.2085,0,0,0,0,0,0,0.1554,0.1563,0.1589,0.1601,0.1611,0.1664,0.1653,0.1658,0.1704,0.1706,0.1761,0.177,0.1774,0.1862,0.1874,0.1915,0.1855,0.2025,0.2029,0.2033,0.2081,0.209,0.2097,0,0,0,0,0,0.1551,0.1574,0.1589,0.1599,0.1639,0.1666,0.1672,0.1691,0.1707,0.1728,0.1772,0.177,0.1894,0.1868,0.1882,0.1925,0.2024,0.2028,0.2032,0.2078,0.2088,0.2097,0,0,0,0,0,0,0.155,0.1579,0.1596,0.1629,0.1658,0.167,0.1701,0.1717,0.1767,0.1787,0.1805,0.1819,0.1901,0.1912,0.1884,0.1989,0.1955,0.1963,0.1985,0.1995,0.2003,0.2009,0.1859,0,0,0,0,0,0.1563,0.1592,0.1617,0.1651,0.1669,0.1696,0.1719,0.1736,0.1773,0.1796,0.1833,0.1879,0.1925,0.1961,0.1998,0.2069,0.2078,0.2103,0.2111,0.2117,0.2132,0.2172,0.2185,0.2049,0.2049,0.2049,0,0,0.157,0.1596,0.1611,0.1654,0.1681,0.1711,0.171,0.1758,0.1794,0.1806,0.1883,0.1917,0.1951,0.2019,0.2057,0.2038,0.2163,0.2123,0.2128,0.214,0.2178,0.2191,0.2203,0.2053,0.2052,0.2051,0,0,0.159,0.1628,0.1655,0.1683,0.1737,0.1753,0.1776,0.1816,0.185,0.1924,0.1938,0.2002,0.2074,0.2099,0.2121,0.2203,0.2204,0.2218,0.2269,0.2307,0.2318,0.2328,0.2361,0.2374,0.2222,0.2222,0.2222,0,0.1601,0.1638,0.1668,0.1703,0.1735,0.1776,0.1811,0.1849,0.1913,0.1955,0.196,0.2078,0.2109,0.2186,0.2211,0.2222,0.2243,0.2226,0.2316,0.2326,0.2336,0.2367,0.238,0.2225,0.2225,0.2224,0.2224,0,0.1628,0.1672,0.1695,0.175,0.1788,0.1831,0.1879,0.1936,0.1988,0.2025,0.2128,0.2169,0.2239,0.2254,0.2264,0.2349,0.2343,0.2319,0.2287,0.2352,0.2382,0.2394,0.2229,0.2228,0.2227,0.2227,0,0,0.161,0.1696,0.1708,0.174,0.1821,0.1846,0.1927,0.2001,0.2064,0.2135,0.2214,0.2296,0.2331,0.236,0.238,0.2415,0.25,0.2407,0.2407,0.2433,0.2593,0.2449,0.2449,0.2493,0.2496,0.2498,0.2589,0,0.1626,0.1687,0.1735,0.1801,0.1833,0.1904,0.197,0.205,0.2127,0.2214,0.228,0.2364,0.2367,0.2415,0.2457,0.2494,0.2536,0.2478,0.2534,0.2536,0.2393,0.2459,0.2506,0.2598,0.2601,0.2603,0.2604,0,0.163,0.1674,0.174,0.1826,0.185,0.1905,0.2024,0.2092,0.2221,0.2285,0.2385,0.2439,0.2538,0.2512,0.2619,0.2587,0.2608,0.2618,0.2621,0.2478,0.2415,0.252,0.2627,0.2625,0.2623,0.2622,0.2621,0,0.1582,0.1672,0.1727,0.1757,0.1864,0.1926,0.1997,0.2125,0.2201,0.2346,0.2417,0.2527,0.2603,0.2649,0.2705,0.2675,0.2798,0.2747,0.2635,0.2626,0.2704,0.2692,0.2814,0.2814,0.2814,0.2814,0.2813,0,0.1561,0.1605,0.1716,0.1744,0.1825,0.1913,0.2023,0.2111,0.2252,0.234,0.246,0.2535,0.2645,0.2728,0.2745,0.2741,0.2838,0.2662,0.2643,0.2724,0.2714,0.2713,0.27,0.2817,0.2816,0.2816,0.2815,0,0.1497,0.1571,0.1635,0.1758,0.1806,0.1868,0.203,0.2096,0.2247,0.2367,0.242,0.2581,0.2682,0.2771,0.2856,0.2782,0.2791,0.2764,0.2874,0.2857,0.2581,0.2571,0.2631,0.2627,0.2624,0.2621,0.2618,0,0.1466,0.1493,0.163,0.1672,0.174,0.1849,0.192,0.2081,0.2152,0.2367,0.2403,0.2573,0.266,0.267,0.2766,0.2798,0.2763,0.2742,0.2632,0.2589,0.2566,0.256,0.2554,0.2612,0.2611,0.261,0.2609,0,0.1395,0.1461,0.1518,0.1605,0.1687,0.1763,0.1879,0.1918,0.2096,0.2256,0.2334,0.2398,0.2512,0.2575,0.2637,0.2644,0.2735,0.2703,0.2709,0.2605,0.2567,0.2545,0.2544,0.2597,0.2599,0.26,0.2601,0,0.1346,0.1365,0.1443,0.1511,0.1603,0.1636,0.1717,0.1798,0.1891,0.2123,0.2147,0.2325,0.2485,0.2499,0.2549,0.256,0.2504,0.2394,0.2414,0.2429,0.2321,0.224,0.2168,0,0,0,0,0,0.1273,0.1279,0.1333,0.1392,0.1478,0.1532,0.1663,0.1746,0.1924,0.1926,0.2033,0.2128,0.2212,0.2305,0.2275,0.2457,0.2511,0.241,0.2392,0.2528,0.2542,0.2433,0,0,0,0,0,0,0.1222,0.1263,0.1285,0.1275,0.1297,0.1372,0.1449,0.1573,0.1585,0.1779,0.1841,0.1994,0.2114,0.2214,0.2234,0.2263,0.2206,0.2531,0.2525,0.2519,0.2532,0.2544,0.2438,0,0,0,0,0]},{"header":{"parameterUnit":"m.s-1","parameterCategory":2,"la1":30.2991,"la2":30.254,"lo1":-89.0895,"lo2":-89.0444,"dy":0.0017,"dx":0.0017,"nx":28,"ny":28,"refTime":"2023-04-08T21:00:00:Z","depth":"4","parameterNumber":3,"parameterNumberName":"V-component_of_CURRENTS"},"data":[0,0,0,0,0,0,0,0,0,0,0,0,0,0,0,0,0,0,0,0,0,0,0,0,0,0,0,0,0,0,0,0,0,0,0,0,0,0,0,0,0,0,0,0,0,0,0,0,0,0,0,0,0,0,0,0,0,0,0.0212,0.0211,0,0.0178,0.0177,0.0177,0.0169,0.017,0.017,0.017,0.0089,0.0087,0.0084,0,0,0,0,0,0,0,0,0,0,0,0,0,0.0235,0.0235,0.0212,0.0211,0.0211,0.0178,0.0177,0.0176,0.0169,0.017,0.017,0.0171,0.009,0.0087,0.0084,0,0,0,0,0,0,0,0,0,0,0,0,0,0.0214,0.0235,0.0212,0.0205,0.0204,0.0178,0.0177,0.0176,0.0169,0.017,0.017,0.0171,0.0091,0.0087,0.0084,0.0048,0,0,0.0072,0.007,0,0,0,0,0,0,0,0,0.0215,0.0213,0.0206,0.0205,0.0204,0.018,0.0156,0.0132,0.0169,0.0181,0.017,0.0171,0.0116,0.011,0.0101,0.0044,0.0041,0.0072,0.0069,0.0068,0.0067,0,0,0,0,0,0,0,0.0217,0.0214,0.0196,0.0206,0.0204,0.0191,0.0189,0.0151,0.0143,0.018,0.0179,0.0178,0.0115,0.0104,0.0098,0.004,0.0072,0.0068,0.0066,0.0064,-0.0029,-0.0029,0,0,0,0,0,0,0.0225,0.0216,0.0198,0.0196,0.0213,0.0191,0.0188,0.0186,0.0144,0.014,0.0178,0.0178,0.011,0.0103,0.0095,0.0078,0.0068,0.0064,0.0062,-0.0029,-0.0029,-0.0029,0,0,0,0,0,0,0.0226,0.0224,0.0199,0.0206,0.0202,0.019,0.0187,0.0185,0.0182,0.0144,0.0138,0.0179,0.0111,0.0101,0.007,0.0074,0.0062,0.0059,-0.0029,-0.0029,-0.0029,0.0025,0,0,0,0,0,0,0.0227,0.0224,0.0226,0.0207,0.0202,0.0193,0.0187,0.0184,0.018,0.0181,0.0142,0.0135,0.011,0.0076,0.0066,0.0068,0.0056,-0.0028,-0.0029,-0.0029,0.0023,0.0026,0.0029,0,0,0,0,0,0.0228,0.0233,0.0226,0.0224,0.0205,0.0193,0.0189,0.0181,0.018,0.018,0.0154,0.0137,0.0066,0.0072,0.0061,0.0062,-0.0028,-0.0029,-0.0029,0.0022,0.0026,0.0029,0,0,0,0,0,0,0.0245,0.0232,0.0225,0.0226,0.0213,0.0193,0.0195,0.0185,0.0164,0.0167,0.013,0.012,0.0096,0.0067,0.0074,0.0033,0.0017,0.0015,0.006,0.0063,0.0066,0.009,0.0053,0,0,0,0,0,0.0249,0.0249,0.0232,0.0232,0.023,0.0211,0.0206,0.02,0.018,0.0172,0.0145,0.0113,0.0083,0.0065,0.0035,0.0006,-0.0023,-0.0,0.0003,0.0006,0.0017,-0.0029,-0.0029,-0.0031,-0.0031,-0.0031,0,0,0.0258,0.0249,0.025,0.0236,0.0227,0.023,0.021,0.0208,0.0211,0.0164,0.0157,0.0122,0.0078,0.0054,0.004,0.0031,-0.0011,0.0005,0.0008,0.0018,-0.003,-0.0029,-0.0029,-0.0031,-0.0031,-0.0031,0,0,0.0277,0.0267,0.0275,0.0267,0.0257,0.0247,0.025,0.0232,0.0226,0.0207,0.0178,0.0146,0.0098,0.0071,0.0049,0.0045,0.0007,0.0034,0.0066,0.0021,0.0021,0.0021,-0.0019,-0.0024,0.0034,0.0034,0.0034,0,0.0289,0.0296,0.0276,0.0281,0.0285,0.026,0.0275,0.026,0.0234,0.0228,0.0214,0.0147,0.0108,0.0079,0.008,0.0053,0.0024,0.0059,0.0026,0.0025,0.0024,-0.0017,-0.0023,0.0036,0.0036,0.0036,0.0036,0,0.0313,0.0321,0.0327,0.0328,0.0326,0.0335,0.0318,0.0313,0.03,0.0279,0.0249,0.0193,0.0156,0.0133,0.0105,0.0079,0.0059,0.0038,0.0022,0.0028,-0.0017,-0.0023,0.004,0.0039,0.0038,0.0038,0,0,0.0339,0.0345,0.035,0.0363,0.0356,0.036,0.0365,0.036,0.0366,0.0324,0.0322,0.0258,0.0226,0.02,0.0154,0.0113,0.0073,0.0079,0.0075,0.0048,-0.0023,-0.0031,-0.0039,0.0046,0.0045,0.0045,-0.0051,0,0.0369,0.0398,0.0391,0.0425,0.0442,0.0426,0.0437,0.0425,0.0402,0.039,0.0327,0.0303,0.0251,0.0235,0.0185,0.0103,0.0059,0.0101,-0.0032,-0.0036,-0.0036,-0.0046,0.0042,-0.0056,-0.0058,-0.0059,-0.006,0,0.0396,0.0415,0.0455,0.0483,0.0491,0.051,0.0525,0.0529,0.0497,0.0479,0.0436,0.0383,0.0319,0.0276,0.014,0.017,0.0084,0.0015,0.0009,-0.0018,-0.0055,-0.0065,-0.0072,-0.0071,-0.007,-0.0069,-0.0068,0,0.0428,0.0461,0.05,0.0507,0.0531,0.0556,0.0573,0.0559,0.0572,0.0537,0.0535,0.0443,0.0406,0.0287,0.0142,0.014,-0.0009,-0.0035,-0.0125,-0.0127,-0.0114,-0.0113,-0.0129,-0.0129,-0.0129,-0.0128,-0.0128,0,0.0458,0.0491,0.0524,0.0547,0.0605,0.0604,0.0656,0.0653,0.0655,0.0673,0.0589,0.0574,0.0408,0.0299,0.0163,0.0001,-0.0,-0.0117,-0.0152,-0.0091,-0.0086,-0.0119,-0.0117,-0.0132,-0.0131,-0.013,-0.013,0,0.0478,0.0499,0.0549,0.0598,0.0622,0.0663,0.0728,0.0756,0.0752,0.0772,0.0768,0.0669,0.0525,0.035,0.0149,0.0036,-0.0123,-0.0181,-0.0096,-0.0125,-0.0217,-0.021,-0.029,-0.0291,-0.0292,-0.0293,-0.0293,0,0.0487,0.0514,0.059,0.0632,0.0661,0.0728,0.0776,0.0805,0.0836,0.0827,0.0837,0.0717,0.0626,0.0349,0.0153,-0.0111,-0.015,-0.0232,-0.0231,-0.0207,-0.0233,-0.0225,-0.0218,-0.0295,-0.0295,-0.0295,-0.0295,0,0.0503,0.0534,0.0579,0.0669,0.0735,0.0809,0.0882,0.0913,0.0939,0.0938,0.0897,0.075,0.0587,0.0357,0.0153,-0.0038,-0.0179,-0.0242,-0.0242,-0.0241,-0.0214,-0.0237,-0.0229,-0.0298,-0.0298,-0.0298,-0.0297,0,0.0517,0.0552,0.0619,0.0698,0.0784,0.0866,0.0903,0.0946,0.098,0.0971,0.0952,0.0778,0.0678,0.0394,0.0204,0.0016,-0.0038,-0.0098,-0.0107,-0.0106,-0.0029,0.0034,-0.0001,0,0,0,0,0,0.0524,0.0571,0.0642,0.0734,0.082,0.0879,0.0961,0.0988,0.1016,0.1,0.0983,0.0833,0.0554,0.0431,0.0242,0.0164,-0.0086,-0.0066,-0.0163,-0.0316,-0.0312,-0.0255,0,0,0,0,0,0,0.0531,0.0599,0.0639,0.0752,0.082,0.0923,0.098,0.1,0.0994,0.099,0.0848,0.0785,0.0512,0.0667,0.024,0.0181,0.0092,-0.0194,-0.0198,-0.0318,-0.0314,-0.0312,-0.0251,0,0,0,0,0]}]]